GEFSSGP_con_probscp_000.txt.gz
Probability
0 0 0 0 0 0 0 0 0 0 0 0 0 0 0 0 0 0 0 0 0 0 1 3 5 3 3 5 4 1 0 0 0 0 1 2 4 5 3 1 0 0 0 0 0 0 0 0 0
0 0 0 0 0 0 0 0 0 0 0 0 0 0 0 0 0 0 0 0 0 0 0 1 2 2 1 2 1 0 0 0 0 0 0 1 3 3 2 1 0 0 0 0 0 0 0 0 0
0 0 0 0 0 0 0 0 0 0 0 0 0 0 0 0 0 0 1 0 0 0 0 0 0 0 0 0 0 0 0 0 0 0 0 0 1 1 1 0 0 0 0 0 0 0 0 0 0
0 0 0 0 0 0 0 0 0 0 0 0 0 0 0 0 4 9 10 4 0 0 0 0 0 0 0 0 0 0 0 0 0 0 0 0 0 0 0 0 0 0 0 0 0 1 1 2 1
0 0 0 0 0 0 0 0 0 0 0 0 0 0 0 7 25 39 30 11 1 0 0 0 0 0 0 0 0 0 0 0 0 0 0 0 0 0 0 0 0 0 1 3 4 4 5 5 5
0 0 0 0 0 0 0 0 0 0 0 0 0 0 2 20 56 70 45 15 1 0 0 0 0 0 0 0 1 1 1 1 1 1 2 2 1 0 0 0 0 1 4 9 10 7 6 7 6
0 0 0 0 0 0 0 0 0 0 0 0 0 1 9 38 76 77 41 10 1 0 0 0 0 0 0 0 1 3 4 4 5 7 8 6 3 0 0 0 1 3 7 10 9 5 4 4 4
0 0 0 0 0 0 0 0 0 0 0 0 0 7 28 62 84 66 25 3 0 0 0 0 0 0 0 0 2 6 10 11 13 16 15 8 3 0 0 0 1 3 7 7 5 3 2 1 1
0 0 0 0 0 0 0 0 0 0 0 3 13 32 62 85 81 47 12 0 0 0 0 0 1 1 0 0 3 9 13 13 16 17 14 7 2 0 0 0 0 2 6 6 3 1 1 0 0
0 0 0 0 0 0 0 0 0 0 1 14 43 73 89 88 60 23 4 0 0 0 0 0 1 1 1 0 2 6 8 8 9 9 6 3 1 0 0 0 0 2 4 4 1 0 0 0 0
0 0 0 0 0 0 0 0 0 0 3 27 70 96 98 78 36 7 0 0 0 0 0 0 1 1 0 0 1 2 2 2 2 2 1 1 0 0 0 0 0 1 1 1 0 0 0 0 0
0 0 0 0 0 0 0 0 0 0 9 42 83 100 98 71 28 2 0 0 0 0 0 0 0 0 0 0 0 0 0 0 0 0 0 0 0 0 0 0 0 0 0 0 0 0 0 0 0
0 0 0 0 0 0 0 0 2 9 31 68 93 100 98 73 29 3 0 0 0 0 0 0 0 0 0 0 0 0 0 0 0 0 0 0 0 1 1 0 0 0 0 0 0 0 0 0 0
0 0 0 0 0 0 0 0 6 28 64 90 100 100 98 73 29 3 0 0 0 0 0 0 0 0 0 0 0 0 0 0 0 0 0 0 1 2 2 0 0 0 0 0 0 0 0 0 0
0 0 0 0 0 0 0 0 8 40 80 99 99 98 90 60 21 2 0 0 0 0 0 0 0 0 0 0 0 0 0 0 0 0 0 0 0 1 1 0 0 0 0 0 0 0 0 0 0
0 0 0 0 0 0 0 0 6 34 72 88 81 74 63 34 9 0 0 0 0 0 0 0 1 1 1 0 0 0 0 0 0 0 0 0 0 0 0 0 0 0 0 0 0 0 0 0 0
0 0 0 0 0 0 0 0 2 17 46 59 45 34 27 13 2 0 0 0 0 0 0 0 1 1 1 0 0 0 0 0 0 0 0 0 0 0 0 0 0 0 0 0 0 0 0 0 0
0 0 0 0 0 0 0 0 0 4 17 26 19 10 9 5 1 0 0 0 0 0 0 0 0 0 0 0 0 0 0 0 0 0 0 0 0 0 0 0 0 0 0 0 0 0 0 0 0
0 0 0 0 0 0 0 0 0 0 3 6 7 6 6 4 1 0 0 0 0 0 0 0 0 0 0 0 0 0 0 0 0 0 0 0 0 0 0 0 0 0 0 0 0 0 0 0 0
0 0 0 0 0 0 0 0 0 0 0 0 1 2 2 2 0 0 0 0 0 0 0 0 0 0 0 0 0 0 0 0 0 0 0 0 0 0 0 0 0 0 0 0 0 0 0 0 0
0 0 0 0 0 0 0 0 0 0 0 0 0 0 0 0 0 0 0 0 0 0 0 0 0 0 0 0 0 0 0 0 0 0 0 0 0 0 0 0 0 0 0 0 0 0 0 0 0
0 0 0 0 0 0 0 0 0 0 0 0 0 0 1 5 9 8 2 0 0 0 0 0 0 0 0 0 0 0 0 0 0 0 0 0 0 0 0 0 0 0 0 0 0 0 0 0 0
0 0 0 0 0 0 0 0 0 0 0 1 3 7 10 17 22 15 3 0 0 0 0 0 0 0 0 0 0 0 0 0 0 0 0 0 0 0 0 0 0 0 0 0 0 0 0 0 0
0 0 0 0 0 0 0 0 0 0 0 6 20 32 32 28 21 10 2 0 0 0 0 0 0 0 0 0 0 0 0 0 0 0 0 0 0 0 0 0 0 0 0 0 0 0 0 0 0
0 0 0 0 0 0 0 0 0 0 0 15 46 61 47 26 10 2 0 0 0 0 0 0 0 0 0 0 0 0 0 0 0 0 0 0 0 0 0 0 0 0 0 0 0 0 0 0 0
0 0 0 0 0 0 0 0 0 0 0 19 55 67 42 16 3 0 0 0 0 0 0 0 0 0 0 0 0 0 0 0 0 0 0 0 0 0 0 0 0 0 0 0 0 0 0 0 0
0 0 0 0 0 0 0 0 0 0 0 15 43 48 25 6 1 0 0 0 0 0 0 0 0 0 0 0 0 0 0 0 0 0 0 0 0 0 0 0 0 0 0 0 0 0 0 0 0
0 0 0 0 0 0 0 0 0 0 0 9 22 21 9 2 0 0 0 0 0 0 0 0 0 0 0 0 0 0 0 0 0 0 0 0 0 0 0 0 0 0 0 0 0 0 0 0 0
0 0 0 0 0 0 0 0 0 0 0 2 5 4 1 0 0 0 0 0 0 0 0 0 0 0 0 0 0 0 0 0 0 0 0 0 0 0 0 0 0 0 0 0 0 0 0 0 0
0 0 0 0 0 0 0 0 0 0 0 0 0 0 0 0 0 0 0 0 0 0 0 0 0 0 0 0 0 0 0 0 0 0 0 0 0 0 0 0 0 0 0 0 0 0 0 0 0

GEFSSGP_con_probscp_006.txt.gz
Probability
0 0 0 0 0 0 0 0 0 0 0 0 0 0 0 0 0 0 1 2 1 1 0 0 0 0 0 0 0 0 1 2 2 1 0 0 0 0 0 0 0 0 0 0 0 0 0 0 1
0 0 0 0 0 0 0 0 0 0 0 0 0 0 0 0 0 1 3 4 2 1 0 0 0 0 0 0 0 0 0 1 1 0 0 0 0 0 0 0 0 0 0 0 0 0 0 1 2
0 0 0 0 0 0 0 0 0 0 0 0 0 0 0 0 0 1 4 4 2 1 0 0 0 0 0 0 0 0 0 0 0 0 0 0 0 0 0 0 0 0 0 0 0 0 1 1 2
0 0 0 0 0 0 0 0 0 0 0 0 0 0 0 0 0 2 3 2 0 0 0 0 0 0 0 0 0 0 0 0 0 0 0 0 0 0 0 0 0 0 0 0 1 1 2 2 1
0 0 0 0 0 0 0 0 0 0 0 0 0 0 0 1 3 4 3 1 0 0 0 0 0 0 0 0 0 0 0 0 0 0 0 0 0 0 0 0 0 0 0 0 1 2 2 1 0
0 0 0 0 0 0 0 0 0 0 0 0 0 0 1 3 5 6 4 2 1 0 0 0 0 0 1 1 0 0 0 0 0 0 0 0 0 0 0 0 0 0 0 0 1 1 1 0 0
0 0 0 0 0 0 0 0 0 0 0 0 0 0 2 5 5 3 3 3 2 0 0 0 0 1 2 3 2 1 0 0 0 0 0 0 0 0 0 0 0 0 0 0 0 0 0 0 0
0 0 0 0 0 0 0 0 0 0 0 0 0 0 3 7 6 2 1 1 1 0 0 0 0 1 2 3 2 1 0 0 0 0 0 0 0 0 0 0 0 0 0 0 0 0 0 0 0
0 0 0 0 0 0 0 0 0 0 0 0 0 0 2 6 6 2 0 0 0 0 0 0 0 0 1 1 1 1 0 0 0 0 0 0 0 0 0 0 0 0 0 0 0 0 0 0 0
0 0 0 0 0 0 0 0 0 0 0 0 0 3 7 9 6 2 0 0 0 0 0 0 0 0 0 0 0 0 0 0 0 0 0 0 0 0 0 0 0 0 0 0 0 0 0 0 0
0 0 0 0 0 0 0 0 0 0 0 0 3 16 27 22 9 2 0 0 0 0 0 0 0 0 0 0 0 0 0 0 0 0 0 0 0 0 0 0 0 0 0 0 0 0 0 0 0
0 0 0 0 0 0 0 0 0 0 0 0 10 38 54 36 11 3 1 0 0 0 0 0 0 0 0 0 0 0 0 0 0 0 0 0 0 0 0 0 0 0 0 0 0 0 0 0 0
0 0 0 0 0 0 0 0 0 0 0 3 23 59 67 36 9 3 2 1 0 0 0 0 0 0 0 0 0 0 0 0 0 0 0 0 0 0 0 0 0 0 0 0 0 0 0 0 0
0 0 0 0 0 0 0 0 0 0 0 7 31 60 57 27 6 3 2 1 0 0 0 0 0 0 0 0 0 0 0 0 0 0 0 0 0 0 1 1 0 0 0 0 0 0 0 0 0
0 0 0 0 0 0 0 0 0 0 1 9 26 42 40 24 15 13 8 2 0 0 0 0 0 0 0 0 0 0 1 1 0 0 0 0 0 0 1 1 0 0 0 0 0 0 1 1 2
0 0 0 0 0 0 0 0 1 1 3 9 20 29 34 35 37 36 22 5 0 0 0 0 0 0 2 7 13 16 16 12 6 2 1 0 0 0 1 2 2 1 0 0 0 1 2 3 4
0 0 0 0 0 0 0 0 1 2 5 12 24 34 46 58 65 57 31 6 0 1 1 1 2 7 17 30 40 41 33 21 10 5 2 0 0 0 1 3 3 1 0 0 1 1 2 3 4
0 0 0 0 0 0 0 0 1 2 4 15 33 51 68 80 84 67 35 10 4 5 8 9 12 24 42 54 53 43 27 13 6 3 1 0 0 0 0 1 2 1 0 0 1 2 2 1 1
0 0 0 0 0 0 0 0 0 1 2 12 36 64 83 92 91 73 45 25 21 24 30 34 34 40 54 61 49 27 9 2 0 0 0 0 0 0 0 0 0 0 0 0 1 1 1 0 0
0 0 0 0 0 0 0 0 0 0 1 7 28 59 84 96 93 78 59 50 49 52 59 64 60 51 51 51 37 15 3 0 0 0 0 0 0 0 0 0 0 0 0 0 0 0 0 0 0
0 0 0 0 0 0 0 0 0 0 0 3 15 42 75 94 94 82 72 69 68 70 75 78 72 56 40 28 17 6 1 0 0 0 0 0 0 0 0 0 0 0 0 0 0 0 0 0 0
0 0 0 0 0 0 0 0 0 0 0 1 6 26 61 90 96 87 76 71 67 65 67 70 63 44 23 9 2 0 0 0 0 0 0 0 0 0 0 0 0 0 0 0 0 0 0 0 0
0 0 0 0 0 0 0 0 0 0 0 1 5 21 55 87 97 86 70 55 47 43 43 43 37 22 9 2 0 0 0 0 0 0 0 0 0 0 0 0 0 0 0 0 0 0 0 0 0
0 0 0 0 0 0 0 0 0 0 0 1 11 33 63 86 87 67 45 29 21 19 18 16 12 6 2 1 0 0 0 0 0 0 0 0 0 0 0 0 0 0 0 0 0 0 0 0 0
0 0 0 0 0 0 0 0 0 0 0 2 19 49 74 78 60 34 16 8 6 5 4 3 1 0 0 0 0 0 0 0 0 0 0 0 0 0 0 0 0 0 0 0 0 0 0 0 0
0 0 0 0 0 0 0 0 0 0 0 5 27 57 67 52 27 9 2 0 1 1 0 0 0 0 0 0 0 0 0 0 0 0 0 0 0 0 0 0 0 0 0 0 0 0 0 0 0
0 0 0 0 0 0 0 0 0 0 0 7 31 49 41 21 7 1 0 0 0 0 0 0 0 0 0 0 0 0 0 0 0 0 0 0 0 0 0 0 0 0 0 0 0 0 0 0 0
0 0 0 0 0 0 0 0 0 0 0 7 24 30 19 5 1 0 0 0 0 0 0 0 0 0 0 0 0 0 0 0 0 0 0 0 0 0 0 0 0 0 0 0 0 0 0 0 0
0 0 0 0 0 0 0 0 0 0 0 4 12 14 8 1 0 0 0 0 0 0 0 0 0 0 0 0 0 0 0 0 0 0 0 0 0 0 0 0 0 0 0 0 0 0 0 0 0
0 0 0 0 0 0 0 0 0 0 0 1 5 7 4 1 0 0 0 0 0 0 0 0 0 0 0 0 0 0 0 0 0 0 0 0 0 0 0 0 0 0 0 0 0 0 0 0 0

GEFSSGP_con_probscp_012.txt.gz
Probability
0 0 0 0 0 0 0 0 1 1 1 0 0 0 0 2 8 12 9 14 25 19 7 6 8 5 1 0 0 0 0 1 2 2 1 0 0 0 0 0 0 0 0 0 0 0 0 0 0
0 0 0 0 0 0 0 0 0 0 0 0 0 0 0 1 4 6 6 8 12 9 4 4 5 4 1 0 0 0 0 1 2 2 1 0 0 0 0 0 0 0 0 0 0 0 0 0 0
0 0 0 0 0 0 0 0 0 0 0 0 0 0 0 0 1 2 2 2 2 3 4 4 4 3 2 0 0 0 0 1 1 1 1 0 0 0 0 0 0 0 0 0 0 0 1 0 0
0 0 0 0 0 0 0 0 0 0 0 0 0 0 1 2 3 2 1 0 1 4 5 5 5 4 1 0 0 0 0 0 0 0 0 0 0 0 0 0 0 0 0 0 0 0 0 0 0
0 0 0 0 0 0 0 0 0 0 0 0 0 0 2 5 6 2 0 0 1 3 3 3 4 4 1 0 0 0 0 0 0 0 0 0 0 0 0 0 0 0 0 0 0 0 0 0 0
0 0 0 0 0 0 0 0 0 0 0 0 0 0 3 7 7 2 0 0 1 3 3 2 2 1 0 0 0 0 0 0 0 0 0 0 0 0 0 0 0 0 0 0 0 0 0 0 0
0 0 0 0 0 0 0 0 0 0 1 0 0 0 5 11 10 4 1 0 1 2 3 1 0 0 0 0 0 0 0 0 0 0 0 0 0 0 0 0 0 0 0 0 0 0 0 0 0
0 0 0 0 0 0 0 0 0 0 0 0 0 1 9 18 14 8 6 3 2 4 5 3 1 0 0 0 0 0 0 0 0 0 0 0 0 0 0 0 0 0 0 0 0 0 0 0 0
0 0 0 0 0 0 0 0 0 0 0 0 1 4 13 19 16 15 17 13 9 11 11 7 4 1 0 0 0 0 0 0 0 0 0 0 0 0 0 0 0 0 0 0 0 0 0 0 0
0 0 0 0 0 0 0 0 0 0 0 0 5 12 18 18 17 23 32 32 26 21 14 9 7 5 2 1 0 0 0 0 0 0 0 0 0 0 0 0 0 0 0 0 0 0 0 0 0
0 0 0 0 0 0 0 0 0 0 0 1 7 17 23 21 18 24 40 51 46 27 12 8 10 9 5 2 0 1 1 3 7 6 2 0 0 0 0 0 0 0 0 0 0 0 0 0 0
0 0 0 0 0 0 0 0 0 0 0 0 5 15 22 22 18 21 37 57 55 29 9 10 18 19 16 11 6 6 9 15 19 14 3 0 0 0 2 3 3 1 0 0 0 0 0 0 1
0 0 0 0 0 0 0 0 0 0 0 0 3 11 19 20 18 23 39 61 64 39 16 20 38 45 44 34 20 19 28 30 26 12 2 1 4 11 18 18 13 7 4 5 6 4 3 3 3
0 0 0 0 0 0 0 0 0 0 0 0 1 10 20 21 23 36 55 75 82 65 42 45 65 76 71 51 33 31 39 43 34 24 16 13 18 33 43 43 36 29 22 19 19 18 17 17 16
0 0 0 0 0 0 0 0 0 0 0 0 0 8 23 30 34 51 75 90 96 88 76 71 78 88 80 53 37 39 49 56 61 60 52 42 39 46 56 62 63 58 48 39 37 38 40 38 33
0 0 0 0 0 0 0 0 0 0 0 0 0 6 25 42 49 66 88 98 100 99 95 82 76 87 85 65 54 59 70 79 85 85 79 65 50 46 55 67 70 66 58 49 44 43 42 38 33
0 0 0 0 0 0 0 0 0 0 0 0 0 5 25 51 69 83 96 100 100 100 98 88 83 91 94 87 84 87 90 91 89 84 78 64 45 38 47 54 51 47 44 38 31 26 22 19 16
0 0 0 0 0 0 0 0 0 0 0 0 0 5 25 58 84 96 99 100 100 100 99 96 96 98 98 97 97 97 94 87 79 70 61 48 32 26 30 31 26 22 21 19 13 8 6 5 4
0 0 0 0 0 0 0 0 0 0 0 0 0 5 26 62 90 99 100 100 100 100 100 100 100 99 98 97 97 95 88 78 64 49 39 29 19 14 14 12 9 7 7 6 4 2 1 1 1
0 0 0 0 0 0 0 0 0 0 0 0 0 3 22 60 90 99 99 100 99 99 100 100 99 98 97 97 95 90 78 62 44 30 20 14 10 7 5 4 2 2 2 1 0 0 0 0 0
0 0 0 0 0 0 0 0 0 0 0 0 0 1 15 51 86 99 99 98 98 98 99 99 98 97 97 95 91 80 64 47 33 21 12 7 4 3 2 1 0 0 0 0 0 0 0 0 0
0 0 0 0 0 0 0 0 0 0 0 0 0 0 8 37 76 96 99 98 98 99 99 99 98 98 97 95 88 75 58 44 32 21 11 5 2 1 1 0 0 0 0 0 0 0 0 0 0
0 0 0 0 0 0 0 0 0 0 0 0 0 0 3 25 63 93 100 99 99 100 99 98 98 97 95 93 89 76 59 44 31 19 10 4 1 0 0 0 0 0 0 0 0 0 0 0 0
0 0 0 0 0 0 0 0 0 0 0 0 0 0 3 22 60 91 100 100 99 98 95 92 90 87 81 75 70 59 45 31 19 10 5 2 0 0 0 0 0 0 0 0 0 0 0 0 0
0 0 0 0 0 0 0 0 0 0 0 0 1 4 13 37 70 93 99 97 94 87 79 72 65 58 48 38 31 26 19 12 6 3 1 0 0 0 0 0 0 0 0 0 0 0 0 0 0
0 0 0 0 0 0 0 0 0 0 0 1 4 16 38 66 86 96 94 86 76 63 50 39 30 22 15 9 6 5 3 2 1 0 0 0 0 0 0 0 0 0 0 0 0 0 0 0 0
0 0 0 0 0 0 0 0 0 0 0 2 12 37 69 89 93 87 75 58 43 31 21 12 6 3 1 0 0 0 0 0 0 0 0 0 0 0 0 0 0 0 0 0 0 0 0 0 0
0 0 0 0 0 0 0 0 0 0 0 4 22 57 85 91 80 62 41 24 13 8 4 1 0 0 0 0 0 0 0 0 0 0 0 0 0 0 0 0 0 0 0 0 0 0 0 0 0
0 0 0 0 0 0 0 0 1 1 1 7 33 71 88 76 54 31 13 4 1 0 0 0 0 0 0 0 0 0 0 0 0 0 0 0 0 0 0 0 0 0 0 0 0 0 0 0 0
0 0 0 0 0 0 0 1 2 2 2 10 41 79 88 65 34 12 2 0 0 0 0 0 0 0 0 0 0 0 0 0 0 0 0 0 0 0 0 0 0 0 0 0 0 0 0 0 0

GEFSSGP_con_probscp_018.txt.gz
Probability
0 0 0 0 0 0 0 0 0 0 0 0 3 9 11 8 2 0 0 0 0 1 4 21 45 56 54 53 57 56 43 24 12 8 6 4 3 2 2 1 0 0 0 0 0 0 0 0 0
0 0 0 0 0 0 0 0 0 0 0 0 3 7 8 4 1 0 0 0 0 0 3 14 32 41 37 35 37 37 28 15 8 5 3 1 1 1 1 0 0 0 0 0 0 0 0 0 0
0 0 0 0 0 0 0 0 0 0 0 0 2 4 3 2 1 0 0 0 0 0 1 7 16 18 15 13 14 14 11 6 3 2 1 0 0 0 0 0 0 0 0 0 0 0 0 0 0
0 0 0 0 0 0 0 0 0 0 0 1 3 3 2 3 4 2 1 0 0 0 0 2 5 5 3 2 3 3 3 1 1 1 0 0 0 0 0 0 0 0 0 0 0 0 0 0 0
0 0 0 0 0 0 0 0 0 0 2 5 7 5 3 6 11 10 5 2 0 0 0 0 1 1 0 0 0 1 1 0 0 0 0 0 0 0 1 1 0 0 0 0 0 0 0 0 0
0 0 0 0 0 0 0 0 0 1 3 6 7 4 3 8 19 23 16 7 1 0 0 0 0 0 0 0 0 0 0 0 0 0 0 0 0 1 2 2 1 0 0 0 0 0 0 0 0
0 0 0 0 0 0 0 0 0 0 2 3 3 2 2 9 26 41 36 18 4 0 0 0 0 0 0 0 0 0 0 0 0 0 0 0 1 2 3 3 2 1 0 0 0 0 0 0 0
0 0 0 0 0 0 0 0 0 0 0 0 1 1 2 10 32 57 57 31 7 0 0 0 0 0 0 0 0 0 0 0 0 0 0 0 1 2 2 3 2 1 0 0 0 0 0 0 0
0 0 0 0 0 0 0 0 0 1 3 4 4 3 5 14 39 67 68 37 10 1 0 0 0 0 0 0 0 0 0 0 0 0 0 0 0 1 1 1 1 1 0 0 0 0 0 0 0
0 0 0 0 0 0 0 0 0 3 9 16 19 16 14 20 40 64 63 37 13 3 1 0 0 0 0 0 0 0 0 0 0 0 0 0 0 0 0 0 0 0 0 0 0 0 0 0 0
0 0 0 0 0 0 0 0 1 6 16 31 42 40 33 31 41 57 58 40 20 11 7 4 1 0 0 0 0 0 0 0 0 0 0 0 0 0 0 0 0 0 0 0 0 0 0 0 0
0 0 0 0 0 0 0 0 1 7 22 45 60 60 53 48 50 57 61 50 35 30 27 18 9 4 1 0 0 0 0 0 0 0 0 0 0 0 0 0 0 0 0 0 0 0 0 0 0
0 0 0 0 0 0 0 0 0 7 28 53 65 64 61 60 61 65 69 67 60 57 54 41 24 9 3 1 0 0 0 0 0 0 0 0 0 0 0 0 0 0 0 0 0 0 0 0 0
0 0 0 0 0 0 0 0 0 9 31 54 60 55 53 58 65 71 77 79 77 76 74 63 40 18 6 2 0 0 0 0 0 0 0 0 0 0 0 0 0 0 0 0 0 0 0 0 0
0 0 0 0 0 0 0 0 0 9 29 46 47 42 41 48 60 72 81 83 81 81 83 78 60 36 17 7 3 2 3 3 2 1 0 1 1 1 1 0 0 0 0 0 0 0 0 0 0
0 0 0 0 0 0 0 0 0 6 19 30 33 32 33 38 50 68 81 84 81 81 85 88 81 63 41 24 17 16 17 14 9 3 1 1 2 2 1 0 0 0 0 0 0 0 0 0 0
0 0 0 0 0 0 0 0 0 2 7 13 20 25 28 32 43 62 79 84 83 84 89 95 94 84 68 53 45 39 34 27 15 5 1 1 2 2 1 0 0 0 0 0 0 0 0 0 0
0 0 0 0 0 0 0 0 0 0 1 4 11 20 26 30 41 61 77 84 85 86 92 98 98 94 87 79 70 57 42 27 13 3 0 0 1 1 0 0 0 0 0 0 0 0 0 0 0
0 0 0 0 0 0 0 0 0 0 0 1 7 17 27 37 51 70 84 89 88 88 92 96 98 97 94 90 79 59 37 19 6 1 0 0 0 0 0 0 0 0 0 0 0 0 0 0 0
0 0 0 0 0 0 0 0 0 0 0 1 6 18 35 52 70 84 93 95 93 91 91 94 97 97 94 87 72 48 26 11 2 0 0 0 0 0 0 0 0 0 0 0 0 0 0 0 0
0 0 0 0 0 0 0 0 0 0 0 1 6 20 43 67 85 95 98 98 96 94 94 96 97 96 90 77 56 31 12 4 0 0 0 0 0 0 0 0 0 0 0 0 0 0 0 0 0
0 0 0 0 0 0 0 0 0 0 0 0 4 18 44 73 92 98 99 98 97 98 98 97 96 91 78 58 36 16 5 1 0 0 0 0 0 0 0 0 0 0 0 0 0 0 0 0 0
0 0 0 0 0 0 0 0 0 0 0 0 1 11 36 69 91 98 98 97 97 98 97 94 89 77 56 35 18 6 1 0 0 0 0 0 0 0 0 0 0 0 0 0 0 0 0 0 0
0 0 0 0 0 0 0 0 0 0 0 0 2 8 28 61 89 98 97 96 96 94 87 79 67 49 30 16 7 2 0 0 0 0 0 0 0 0 0 0 0 0 0 0 0 0 0 0 0
0 0 0 0 0 0 0 0 0 1 4 9 14 20 36 65 89 96 96 93 90 81 64 47 33 20 11 5 2 0 0 0 0 0 0 0 0 0 0 0 0 0 0 0 0 0 0 0 0
0 0 0 0 0 0 0 0 3 10 24 37 46 51 62 78 90 93 93 86 74 53 31 17 9 4 2 1 0 0 0 0 0 0 0 0 0 0 0 0 0 0 0 0 0 0 0 0 0
0 0 0 0 0 0 0 0 4 19 43 67 79 81 83 85 83 78 72 60 41 21 8 3 1 1 0 0 0 0 0 0 0 0 0 0 0 0 0 0 0 0 0 0 0 0 0 0 0
0 0 0 0 0 0 0 0 4 15 42 73 88 85 77 68 58 46 34 22 11 4 1 1 0 0 0 0 0 0 0 0 0 0 0 0 0 0 0 0 0 0 0 0 0 0 0 0 0
0 0 0 0 0 0 0 2 7 15 36 62 71 62 48 34 23 15 7 2 0 0 0 0 0 0 0 0 0 0 0 0 0 0 0 0 0 0 0 0 0 0 0 0 0 0 0 0 0
0 0 0 0 0 0 0 4 14 25 40 54 53 39 24 12 5 2 1 0 0 0 0 0 0 0 0 0 0 0 0 0 0 0 0 0 0 0 0 0 0 0 0 0 0 0 0 0 0

GEFSSGP_con_probscp_024.txt.gz
Probability
0 0 0 0 0 0 0 0 0 0 0 0 0 0 0 0 0 0 0 0 0 0 0 1 2 2 2 1 1 0 1 2 4 9 15 16 13 9 4 1 0 0 0 0 0 0 0 0 0
0 0 0 0 0 0 0 0 0 0 0 0 0 0 0 0 0 0 0 0 0 0 0 1 3 3 2 1 1 0 0 1 3 5 7 8 6 4 2 0 0 0 0 0 0 0 0 0 0
0 0 0 0 0 0 0 0 0 0 0 0 0 0 0 0 0 0 0 0 0 0 0 1 3 5 4 2 1 0 0 0 1 1 2 1 1 1 0 0 0 0 0 0 0 0 0 0 0
0 0 0 0 0 0 0 0 0 0 0 0 0 0 0 0 0 0 0 1 1 1 0 1 4 7 8 6 3 1 0 0 0 0 0 0 0 0 0 0 0 0 0 0 0 0 0 0 0
0 0 0 0 0 0 0 0 0 0 0 0 0 0 0 0 0 0 0 1 2 2 2 3 6 9 9 7 4 1 0 0 0 0 0 0 0 0 0 0 0 0 0 0 0 0 1 1 1
0 0 0 0 0 0 0 0 0 0 0 0 0 0 0 0 0 0 0 0 1 2 3 5 6 7 6 4 2 0 0 0 0 0 0 0 0 0 0 0 0 0 0 0 0 0 1 2 2
0 0 0 0 0 0 0 0 0 0 0 0 0 0 0 0 0 0 0 0 1 2 4 5 5 4 3 2 1 0 0 0 0 0 0 0 0 0 0 0 0 0 0 0 0 1 1 1 1
0 0 0 0 0 0 0 0 0 0 0 0 1 0 0 1 1 1 0 0 1 2 3 4 4 4 3 1 0 0 0 0 0 0 0 0 0 0 0 0 0 0 0 0 0 0 0 0 0
0 0 0 0 0 0 0 0 0 0 0 0 0 0 1 3 3 3 1 0 0 1 2 4 6 6 4 1 0 0 0 0 0 0 0 0 0 0 0 0 0 0 0 0 0 0 0 0 0
0 0 0 0 0 0 0 0 0 0 0 0 0 2 5 7 5 4 2 0 0 0 1 3 7 8 6 3 1 1 0 0 0 0 0 0 0 0 0 0 0 0 0 0 0 0 0 0 0
0 0 0 0 0 0 0 0 0 0 0 0 3 13 20 17 10 6 3 0 0 0 1 3 7 9 7 5 4 3 1 0 0 0 0 0 0 0 0 0 0 0 0 0 0 0 0 0 0
0 0 0 0 0 0 0 0 0 0 0 1 12 33 44 37 22 11 4 1 0 0 1 4 8 10 9 7 8 7 3 1 0 0 0 0 0 0 0 0 0 0 0 0 0 0 0 0 0
0 0 0 0 0 0 0 0 0 0 0 7 28 55 67 60 42 21 8 3 1 1 1 4 8 12 12 11 10 8 3 1 0 0 0 0 0 0 0 0 0 0 0 0 0 0 0 0 0
0 0 0 0 0 0 0 0 0 0 2 15 45 72 82 77 63 41 24 12 6 2 2 5 10 13 14 13 11 6 2 0 0 0 0 0 0 0 0 0 0 0 0 0 0 0 0 0 0
0 0 0 0 0 0 0 0 0 0 3 18 49 76 87 87 80 66 48 30 15 6 4 8 14 17 17 14 9 4 1 0 0 0 0 0 0 0 0 0 0 0 0 0 0 0 0 0 0
0 0 0 0 0 0 0 0 0 1 4 15 39 67 84 89 86 75 61 45 30 19 16 20 27 28 24 19 12 6 2 1 0 0 0 0 0 0 0 0 0 0 0 0 0 0 0 0 0
0 0 0 0 0 0 0 0 0 1 4 11 29 54 74 82 80 71 62 54 47 41 40 44 49 49 43 35 25 14 6 2 0 0 0 0 0 0 0 0 0 0 0 0 0 0 0 0 0
0 0 0 0 0 0 0 0 0 1 3 8 21 41 59 68 69 64 59 56 57 61 65 69 73 73 68 59 43 26 12 4 0 0 0 0 0 0 0 0 0 0 0 0 0 0 0 0 0
0 0 0 0 0 0 0 0 0 0 1 5 14 28 44 53 54 50 48 52 61 71 79 84 87 88 84 74 53 31 14 4 0 0 0 0 0 0 0 0 0 0 0 0 0 0 0 0 0
0 0 0 0 0 0 0 0 0 0 0 2 7 16 27 35 37 35 38 50 64 75 83 89 91 91 86 70 45 22 8 2 0 0 0 0 0 0 0 0 0 0 0 0 0 0 0 0 0
0 0 0 0 0 0 0 0 0 0 0 0 2 5 10 17 23 26 33 49 66 78 84 88 90 87 75 51 27 11 3 0 0 0 0 0 0 0 0 0 0 0 0 0 0 0 0 0 0
0 0 0 0 0 0 0 0 0 0 0 0 0 1 2 5 11 18 27 45 67 79 84 86 85 76 55 30 14 6 2 0 0 0 0 0 0 0 0 0 0 0 0 0 0 0 0 0 0
0 0 0 0 0 0 0 0 0 0 1 2 3 3 3 3 7 14 26 44 64 76 80 78 71 55 34 16 6 2 1 0 0 0 0 0 0 0 0 0 0 0 0 0 0 0 0 0 0
0 0 0 0 0 0 0 0 1 4 7 8 8 7 6 8 15 26 38 51 64 70 68 60 48 31 16 7 2 0 0 0 0 0 0 0 0 0 0 0 0 0 0 0 0 0 0 0 0
0 0 0 0 0 0 0 0 3 9 13 11 10 9 10 14 27 41 48 51 54 52 44 34 24 13 5 1 0 0 0 0 0 0 0 0 0 0 0 0 0 0 0 0 0 0 0 0 0
0 0 0 0 0 0 0 1 6 13 15 13 11 12 12 16 25 35 35 32 28 23 17 11 7 3 1 0 0 0 0 0 0 0 0 0 0 0 0 0 0 0 0 0 0 0 0 0 0
0 0 0 0 0 0 0 2 7 14 18 18 15 12 10 9 13 15 13 9 6 4 2 1 0 0 0 0 0 0 0 0 0 0 0 0 0 0 0 0 0 0 0 0 0 0 0 0 0
0 0 0 0 0 0 0 1 5 12 21 23 19 12 5 2 3 4 2 1 0 0 0 0 0 0 0 0 0 0 0 0 0 0 0 0 0 0 0 0 0 0 0 0 0 0 0 0 0
0 0 0 0 0 0 0 0 3 13 23 27 20 10 2 0 0 0 0 0 0 0 0 0 0 0 0 0 0 0 0 0 0 0 0 0 0 0 0 0 0 0 0 0 0 0 0 0 0
0 0 0 0 0 0 0 0 4 16 28 29 19 8 1 0 0 0 0 0 0 0 0 0 0 0 0 0 0 0 0 0 0 0 0 0 0 0 0 0 0 0 0 0 0 0 0 0 0

GEFSSGP_con_probscp_030.txt.gz
Probability
0 0 0 0 0 0 0 0 0 0 0 0 0 0 0 0 0 0 0 0 0 0 0 0 0 0 0 0 0 1 2 3 4 4 3 2 1 1 1 1 0 0 0 0 0 0 0 0 0
0 0 0 0 0 0 0 0 0 0 0 0 0 0 0 0 0 0 0 0 0 0 0 0 0 0 0 0 0 0 1 1 1 1 1 1 0 0 0 0 0 0 0 0 0 0 0 0 0
0 0 0 0 0 0 0 0 0 0 0 0 0 0 0 0 0 0 0 0 0 0 0 0 0 0 0 0 0 0 0 0 0 0 0 0 0 0 0 0 0 0 0 0 0 0 0 0 0
0 0 0 0 0 0 0 0 0 0 0 0 0 0 0 0 0 0 0 0 0 0 0 0 0 0 0 0 0 0 0 0 0 0 0 0 0 0 0 0 0 0 0 0 0 0 0 0 0
0 0 0 0 0 0 0 0 0 0 0 0 0 0 0 0 0 0 0 0 0 0 0 1 1 0 0 0 0 0 0 0 0 0 0 0 0 0 0 0 0 0 0 0 0 0 0 0 0
0 0 0 0 0 0 0 0 0 0 0 0 0 0 0 0 0 0 0 0 0 0 0 1 1 0 0 0 0 0 0 0 0 0 0 0 0 0 0 0 0 0 0 0 0 0 0 0 0
0 0 0 0 0 0 0 0 0 0 0 0 0 0 0 1 1 1 0 0 0 0 0 1 1 0 0 0 0 0 0 0 0 0 0 0 0 0 0 0 0 0 0 0 0 0 0 0 0
0 0 0 0 0 0 0 0 0 0 0 0 0 0 1 4 5 3 1 0 0 0 0 0 0 0 0 0 0 0 0 0 0 0 0 0 0 0 0 0 0 0 0 0 0 0 0 0 0
0 0 0 0 0 0 0 0 0 0 0 0 0 0 4 10 10 5 1 0 0 0 0 0 0 0 0 0 0 0 0 0 0 0 0 0 0 0 0 1 1 0 0 0 0 0 0 0 0
0 0 0 0 0 0 0 0 0 0 0 0 0 1 7 15 14 6 1 0 0 0 0 0 0 0 0 0 0 0 0 0 0 0 0 0 0 0 0 1 1 0 0 0 0 0 0 0 0
0 0 0 0 0 0 0 0 0 0 0 0 0 3 12 17 13 5 1 0 0 0 0 0 0 0 0 0 0 0 0 0 0 0 0 0 0 0 0 1 1 0 0 0 0 0 0 0 0
0 0 0 0 0 0 0 0 0 0 0 0 0 4 14 16 9 2 0 0 0 0 0 0 0 1 1 0 0 0 0 0 0 1 1 1 1 1 0 0 1 1 0 0 0 0 0 0 0
0 0 0 0 0 0 0 0 0 0 0 0 0 3 9 11 7 2 0 0 0 0 1 1 2 4 4 2 0 0 0 0 1 3 4 3 4 3 2 1 2 1 0 0 0 0 0 0 0
0 0 0 0 0 0 0 0 0 0 0 0 0 0 2 5 6 6 6 5 5 4 4 5 7 11 13 7 2 1 1 1 3 5 7 7 9 10 9 7 5 3 2 1 0 0 0 0 0
0 0 0 0 0 0 0 0 0 0 0 0 0 0 0 2 5 9 14 19 21 21 21 19 17 21 26 20 11 6 4 4 8 12 14 16 17 21 26 25 22 18 13 8 4 1 0 0 0
0 0 0 0 0 0 0 0 0 0 0 0 0 0 0 0 2 6 17 34 46 51 53 47 39 41 47 42 30 20 16 17 21 27 31 34 36 42 51 51 46 40 30 19 11 5 2 1 0
0 0 0 0 0 0 0 0 0 0 0 0 0 0 0 0 1 3 15 41 65 76 80 77 70 69 71 67 57 47 41 41 42 44 48 53 57 62 66 62 53 45 33 22 13 7 4 2 1
0 0 0 0 0 0 0 0 0 0 0 0 0 0 0 0 1 5 17 44 72 88 92 93 92 91 90 87 81 75 69 60 52 47 46 50 54 55 53 46 36 29 23 16 10 6 3 1 0
0 0 0 0 0 0 0 0 0 0 0 1 2 2 3 3 4 9 22 44 71 88 94 97 98 99 98 96 92 86 74 55 40 31 28 29 30 30 26 21 17 14 12 10 6 3 1 0 0
0 0 0 0 0 0 0 0 0 0 2 5 8 10 12 11 11 14 25 43 64 81 90 95 99 100 98 95 88 76 55 33 19 13 10 10 11 11 9 7 6 6 6 4 3 1 0 0 0
0 0 0 0 0 0 0 0 0 0 4 12 20 27 31 28 23 21 27 40 55 70 83 91 96 97 94 88 78 60 38 19 8 3 2 2 3 3 2 2 2 2 2 1 1 0 0 0 0
0 0 0 0 0 0 0 0 0 1 8 22 39 52 57 53 43 36 39 47 58 70 81 89 93 92 88 81 69 53 35 18 7 1 0 0 0 0 0 0 0 0 0 0 0 0 0 0 0
0 0 0 0 0 0 0 0 1 4 15 36 58 73 79 74 64 59 61 67 74 81 85 86 87 86 83 74 60 45 30 16 6 1 0 0 0 0 0 0 0 0 0 0 0 0 0 0 0
0 0 0 0 0 0 0 0 4 13 29 48 66 78 82 78 72 70 73 78 81 82 81 78 75 72 66 55 42 29 17 8 3 0 0 0 0 0 0 0 0 0 0 0 0 0 0 0 0
0 0 0 0 0 0 0 1 10 23 33 42 52 60 62 60 59 59 62 63 63 62 61 57 51 44 36 27 20 13 7 3 1 0 0 0 0 0 0 0 0 0 0 0 0 0 0 0 0
0 0 0 0 0 0 0 3 12 20 20 20 25 31 33 33 35 36 35 34 34 34 34 30 24 18 12 8 6 5 3 1 1 0 0 0 0 0 0 0 0 0 0 0 0 0 0 0 0
0 0 0 0 0 0 0 4 8 10 7 6 9 14 14 13 14 14 13 12 12 12 11 9 6 5 3 2 2 2 1 0 0 0 0 0 0 0 0 0 0 0 0 0 0 0 0 0 0
0 0 0 0 0 0 0 2 5 8 10 9 8 9 7 4 3 3 3 3 3 2 2 1 2 1 1 0 0 0 0 0 0 0 0 0 0 0 0 0 0 0 0 0 0 0 0 0 0
0 0 0 0 0 0 0 2 8 15 18 15 10 6 3 1 0 0 0 0 0 0 0 0 0 0 0 0 0 0 0 0 0 0 0 0 0 0 0 0 0 0 0 0 0 0 0 0 0
0 0 0 0 0 0 1 2 10 21 24 19 10 4 1 0 0 0 0 0 0 0 0 0 0 0 0 0 0 0 0 0 0 0 0 0 0 0 0 0 0 0 0 0 0 0 0 0 0

GEFSSGP_con_probscp_036.txt.gz
Probability
0 0 0 0 0 0 0 0 0 0 0 0 0 0 0 0 0 0 0 2 4 5 5 7 7 4 1 0 0 0 0 0 0 0 0 0 0 0 0 0 0 0 0 0 0 0 0 0 0
0 0 0 0 0 0 0 0 0 0 0 0 0 0 0 0 0 0 0 2 3 2 2 3 3 2 0 0 0 0 0 0 0 0 0 0 0 0 0 0 0 0 0 0 0 0 0 0 0
0 0 0 0 0 0 0 0 0 0 0 0 0 0 0 0 0 0 0 1 1 0 0 0 0 0 0 0 0 0 0 0 0 0 0 0 0 0 0 0 0 0 0 0 0 0 0 0 0
0 0 0 0 0 0 0 0 0 0 0 0 0 0 0 0 0 0 0 0 0 0 0 0 0 0 0 0 0 0 0 0 0 0 0 0 0 0 0 0 0 0 0 0 0 0 0 0 0
0 0 0 0 0 0 0 0 1 0 0 0 0 0 0 0 0 0 0 0 1 2 1 0 0 0 0 0 0 0 0 0 0 0 0 0 0 0 0 0 0 0 0 0 0 0 0 0 0
0 0 0 0 0 0 0 0 0 0 0 0 0 1 0 0 0 0 0 1 3 5 3 1 0 0 0 0 0 0 0 0 0 0 0 0 0 0 0 0 0 0 0 0 0 0 0 0 0
0 0 0 0 0 0 0 0 0 0 0 0 0 0 0 0 0 0 0 1 4 6 4 1 0 0 0 0 0 0 0 0 0 0 0 0 0 0 0 0 0 0 0 0 0 0 0 0 0
0 0 0 0 0 0 0 0 0 0 0 0 0 0 1 2 1 0 0 1 4 6 4 1 0 0 0 0 0 0 0 0 0 0 0 0 0 0 0 0 1 0 0 0 0 0 0 0 0
0 0 0 0 0 0 0 0 0 0 0 0 0 2 4 3 1 0 0 0 3 5 4 1 0 0 0 0 0 0 0 0 0 0 0 0 0 0 0 2 4 3 0 0 0 0 0 0 0
0 0 0 0 0 0 0 0 0 0 0 0 1 3 5 3 1 0 0 0 1 3 3 1 1 0 0 0 0 0 0 0 0 0 0 0 0 1 4 7 10 6 1 0 0 0 0 0 0
0 0 0 0 0 0 0 0 0 0 0 0 2 5 6 4 1 0 0 0 2 3 3 4 5 3 3 4 3 1 0 1 0 0 1 1 1 4 10 14 13 8 2 0 0 1 0 0 0
0 0 0 0 0 0 0 0 0 0 0 0 3 8 9 6 3 0 0 1 4 5 6 12 19 17 16 20 17 7 3 5 5 6 8 8 6 8 14 18 15 10 6 5 3 2 2 1 0
0 0 0 0 0 0 0 0 0 0 0 0 3 8 10 7 2 0 2 5 13 19 19 27 45 48 44 51 43 22 15 19 23 26 29 26 21 22 28 35 34 27 25 23 17 13 11 8 5
0 0 0 0 0 0 0 0 0 0 0 0 1 5 7 5 2 1 4 13 31 46 47 53 72 79 78 78 69 48 36 40 47 56 59 53 48 53 61 66 65 59 55 53 44 36 30 22 17
0 0 0 0 0 0 0 0 0 0 0 0 0 2 3 3 3 4 11 29 54 73 77 79 88 95 95 92 86 71 59 60 69 79 83 79 78 83 87 88 86 81 77 75 68 58 48 38 32
0 0 0 0 0 0 0 0 0 0 0 0 0 1 2 2 3 7 24 51 75 88 93 93 94 98 99 98 94 84 75 77 84 89 90 90 91 94 94 92 90 85 82 80 72 62 55 47 42
0 0 0 0 0 0 0 0 0 0 0 1 1 1 2 3 3 11 34 66 87 95 98 98 97 99 100 100 97 90 87 88 89 87 85 84 86 87 87 85 81 76 74 68 56 47 44 39 34
0 0 0 0 0 0 0 0 0 0 1 2 3 4 4 6 8 16 40 70 90 97 99 100 100 100 100 100 98 96 93 89 82 76 71 68 69 71 71 69 65 60 54 45 33 25 23 20 17
0 0 0 0 0 0 0 0 0 1 2 4 5 6 8 11 16 27 46 70 90 98 99 100 100 100 100 100 100 98 92 81 70 61 55 49 47 47 47 47 44 39 32 23 15 9 7 6 6
0 0 0 0 0 0 0 0 1 2 4 6 7 10 14 20 29 42 56 73 90 98 100 100 100 100 100 100 97 91 81 68 57 47 40 34 27 24 25 25 24 19 14 9 4 2 1 1 1
0 0 0 0 0 0 0 0 1 3 5 7 12 19 26 35 46 58 68 79 90 97 100 100 100 100 99 96 91 81 68 57 48 39 29 21 14 11 11 11 9 7 4 2 0 0 0 0 0
0 0 0 0 0 0 0 0 1 3 6 11 23 37 48 55 64 73 79 85 91 95 99 100 99 98 95 91 85 75 64 52 41 29 19 12 7 4 3 3 2 1 1 0 0 0 0 0 0
0 0 0 0 0 0 0 0 1 4 10 23 44 61 70 74 77 81 85 88 90 93 95 96 95 92 89 86 81 72 59 44 30 18 10 5 3 1 0 0 0 0 0 0 0 0 0 0 0
0 0 0 0 0 0 0 0 6 19 34 52 69 80 82 81 77 76 79 81 83 85 87 86 84 80 76 73 68 57 44 30 17 9 5 2 1 0 0 0 0 0 0 0 0 0 0 0 0
0 0 0 0 0 0 0 2 18 48 71 81 85 84 79 72 64 61 61 64 66 68 68 67 64 59 53 48 41 33 25 17 10 5 2 0 0 0 0 0 0 0 0 0 0 0 0 0 0
0 0 0 0 0 0 1 11 39 73 91 92 84 75 65 54 45 40 39 39 40 41 43 43 41 35 30 25 20 15 12 9 6 3 1 0 0 0 0 0 0 0 0 0 0 0 0 0 0
0 0 0 0 0 0 4 24 58 83 89 85 74 61 48 34 24 19 18 18 18 19 20 22 21 17 14 12 10 8 6 5 3 2 1 0 0 0 0 0 0 0 0 0 0 0 0 0 0
0 0 0 0 0 0 4 25 58 79 81 71 58 42 27 15 8 5 5 6 7 6 6 7 8 7 6 5 4 4 4 2 1 1 0 0 0 0 0 0 0 0 0 0 0 0 0 0 0
0 0 0 0 0 0 4 20 50 74 73 56 37 21 9 3 1 1 1 1 2 1 1 1 1 2 3 3 2 1 1 0 0 0 0 0 0 0 0 0 0 0 0 0 0 0 0 0 0
0 0 0 0 0 0 3 21 54 76 70 49 26 9 2 0 0 0 0 0 0 0 0 0 0 1 3 3 2 1 0 0 0 0 0 0 0 0 0 0 0 0 0 0 0 0 0 0 0

GEFSSGP_con_probscp_042.txt.gz
Probability
0 0 0 0 0 0 0 0 0 0 0 0 1 1 1 1 1 0 0 0 1 2 1 6 16 19 14 7 4 3 2 2 1 0 0 0 1 1 1 1 1 0 0 0 0 0 0 0 0
0 0 0 0 0 0 0 0 0 0 0 1 2 2 2 2 2 1 0 1 2 2 1 5 14 17 11 6 3 2 1 1 0 0 0 0 0 0 0 0 0 0 0 0 0 0 0 0 0
0 0 0 0 0 0 0 0 0 0 0 1 2 3 3 2 2 1 0 1 3 3 2 5 10 11 8 4 2 1 0 0 0 0 0 0 0 0 0 0 0 0 0 0 0 0 0 0 0
0 0 0 0 0 0 0 0 0 0 0 1 3 3 1 1 1 1 0 1 3 3 3 4 6 6 4 2 1 0 0 0 0 0 0 0 0 0 0 0 0 0 0 0 0 0 0 0 0
0 0 0 0 0 0 0 0 0 0 1 2 4 3 1 1 2 1 0 1 2 3 3 4 3 2 1 1 0 0 0 0 0 0 0 0 0 0 0 0 0 0 0 0 0 0 0 0 0
0 0 0 0 0 0 0 0 0 1 2 3 5 4 2 1 1 1 0 0 1 2 2 2 2 1 0 0 0 0 0 0 0 0 0 0 0 0 0 0 0 0 0 0 0 0 0 0 0
0 0 0 0 0 0 0 0 0 1 1 2 4 3 2 1 1 1 1 0 0 1 1 0 0 0 0 0 0 0 0 0 0 0 0 0 0 0 0 0 0 0 0 0 0 0 0 0 0
0 0 0 0 0 0 0 0 0 0 0 1 2 1 1 1 4 6 4 1 0 0 0 0 0 0 0 0 0 0 0 0 0 0 0 0 0 0 0 0 0 0 0 0 0 0 0 0 0
0 0 0 0 0 0 0 0 0 0 0 1 1 1 1 5 12 16 13 5 1 0 0 0 0 0 0 0 0 0 0 0 0 0 0 0 0 0 0 0 0 0 0 0 0 0 1 1 1
0 0 0 0 0 0 0 0 0 0 0 1 2 2 3 8 19 26 23 13 5 1 0 0 0 0 0 0 0 0 0 0 0 0 0 0 0 0 0 0 0 0 0 0 0 0 1 2 2
0 0 0 0 0 0 0 0 0 0 0 1 3 3 4 8 16 27 28 19 9 3 0 0 0 0 0 0 0 0 0 0 0 0 0 0 0 0 0 0 0 0 0 0 0 0 1 1 1
0 0 0 0 0 0 0 0 0 0 0 1 3 5 4 5 9 17 24 21 11 4 1 0 0 0 0 0 0 0 0 0 0 0 0 0 0 0 0 0 0 0 0 0 0 0 0 0 0
0 0 0 0 0 0 0 0 0 0 1 3 5 6 5 4 4 9 18 20 14 6 2 0 0 0 0 0 0 0 0 0 0 0 0 0 0 0 0 1 0 0 0 0 0 0 0 0 0
0 0 0 0 0 0 0 0 0 0 2 6 7 6 6 7 7 8 15 22 19 11 5 2 0 0 0 0 0 0 0 0 0 0 0 0 0 0 1 1 0 0 0 0 0 0 0 0 0
0 0 0 0 0 0 0 0 0 0 2 5 6 7 9 12 13 11 14 23 26 20 12 6 2 1 0 1 1 0 0 0 0 0 0 1 1 2 2 1 0 0 0 0 0 0 0 0 0
0 0 0 0 0 0 0 0 0 0 1 3 4 7 9 11 12 11 11 19 28 30 25 21 18 16 15 12 7 5 4 4 3 3 4 5 5 4 3 1 0 0 0 0 0 0 0 0 0
0 0 0 0 0 0 0 0 0 1 2 3 4 8 12 12 11 11 11 16 28 38 41 42 45 48 47 41 32 26 22 18 15 12 12 11 10 6 3 1 0 0 0 0 0 0 0 0 0
0 0 0 0 0 0 0 0 1 2 3 4 6 12 20 21 19 18 17 20 31 44 51 56 66 74 75 72 65 58 48 38 29 25 20 17 14 10 5 2 0 0 0 0 0 0 0 0 0
0 0 0 0 0 0 0 1 2 3 6 9 12 21 30 33 30 28 27 27 35 46 53 60 71 81 87 85 79 71 58 43 31 24 20 16 14 11 8 5 2 0 0 0 0 0 0 0 0
0 0 0 0 0 0 1 2 4 7 14 20 24 31 39 42 40 38 35 34 39 47 55 63 73 83 87 84 74 61 46 32 20 13 10 8 7 7 7 6 3 0 0 0 0 0 0 0 0
0 0 0 0 0 0 1 3 7 15 26 34 39 46 52 53 50 47 45 45 49 54 59 68 76 82 83 77 66 51 37 24 13 6 2 1 2 3 4 3 1 0 0 0 0 0 0 0 0
0 0 0 0 0 0 0 2 9 21 33 42 51 59 65 65 59 57 58 58 59 62 66 73 79 80 77 71 62 50 37 23 10 3 0 0 0 1 1 1 0 0 0 0 0 0 0 0 0
0 0 0 0 0 0 0 1 7 19 30 42 54 61 65 67 64 63 64 64 65 67 70 75 77 75 70 65 57 46 31 16 5 1 0 0 0 0 0 0 0 0 0 0 0 0 0 0 0
0 0 0 0 0 0 0 1 8 17 26 38 50 54 53 55 57 56 57 60 63 65 67 69 67 62 57 51 44 33 21 9 2 0 0 0 0 0 0 0 0 0 0 0 0 0 0 0 0
0 0 0 0 0 0 0 5 14 20 25 34 41 42 41 41 42 42 44 48 51 51 53 52 48 41 36 32 27 19 11 4 1 0 0 0 0 0 0 0 0 0 0 0 0 0 0 0 0
0 0 0 0 0 0 2 9 19 21 22 24 26 27 28 28 29 29 29 29 30 31 32 32 29 24 20 17 14 9 4 1 0 0 0 0 0 0 0 0 0 0 0 0 0 0 0 0 0
0 0 0 0 0 0 2 9 16 19 19 17 15 14 14 14 15 15 13 12 12 13 14 15 15 13 10 8 5 3 1 0 0 0 0 0 0 0 0 0 0 0 0 0 0 0 0 0 0
0 0 0 0 0 0 1 4 11 18 18 14 10 7 5 3 3 4 3 2 3 3 4 5 5 4 3 2 1 1 0 0 0 0 0 0 0 0 0 0 0 0 0 0 0 0 0 0 0
0 0 0 0 0 0 0 1 8 16 15 10 7 4 1 0 0 0 0 0 0 0 0 0 0 0 0 0 0 0 0 0 0 0 0 0 0 0 0 0 0 0 0 0 0 0 0 0 0
0 0 0 0 0 0 0 1 6 14 12 6 3 1 0 0 0 0 0 0 0 0 0 0 0 0 0 0 0 0 0 0 0 0 0 0 0 0 0 0 0 0 0 0 0 0 0 0 0